Hourly Weather Roundup
Issued by NWS Central Illinois

Home | Current Version | Previous Version | Text Only | Print | Product List | Glossary On
Versions: 1 2 3 4 5 6 7 8 9 10 11 12 13 14 15 16 17 18 19 20 21 22 23 24 25 26 27 28 29 30 31 32 33 34 35 36 37 38 39 40 41 42 43 44 45 46 47 48 49 50
000
NZUS43 KILX 311910
HWRILX

AREA WEATHER ROUNDUP
NATIONAL WEATHER SERVICE, LINCOLN IL
200 PM CDT FRI JUL 31 2015


CITY           SKY/WX    TMP DP  RH WIND       PRES   REMARKS
BLOOMINGTON    SUNNY     88  59  37 NW20G28   30.06F HX  87
CHAMPAIGN      MOSUNNY   86  69  56 W12       30.04F HX  90
DANVILLE       MOSUNNY   85  68  55 W12G22    30.00F HX  88
DECATUR        SUNNY     89  66  46 NW15      30.06F HX  91
EFFINGHAM      MOSUNNY   89  60  38 W8        30.07F HX  88
FLORA          SUNNY     88  64  45 N5        30.06F HX  89
GALESBURG      SUNNY     85  63  46 W9        30.06F HX  86
JACKSONVILLE   SUNNY     88  68  50 NW9       30.07F HX  92
LACON          SUNNY     85  62  45 NW9       30.03S HX  86
LAWRENCEVILLE  SUNNY     89  65  44 W9        30.05F HX  91
LITCHFIELD     SUNNY     86  67  52 NW10      30.08F HX  89
$$


CITY           SKY/WX    TMP DP  RH WIND       PRES   REMARKS
LINCOLN        SUNNY     91  64  41 NW8       30.04F HX  92
MACOMB         SUNNY     86  66  51 NW7       30.09F HX  88
MATTOON        MOSUNNY   88  64  44 NW15      30.05F HX  89
MT CARMEL AP   SUNNY     90  63  40 CALM      30.05F HX  90
OLNEY-NOBLE AP MOSUNNY   86  68  54 NW7       30.06F HX  89
PARIS          SUNNY     87  66  50 W17G23    30.04F HX  89
PEORIA         SUNNY     89  61  38 NW9       30.05F HX  89
PONTIAC        SUNNY     84  63  49 NW13G22   30.03F HX  85
RANTOUL        MOSUNNY  N/A N/A N/A W17G25    30.03F
ROBINSON       SUNNY     87  66  50 NW5       30.05F HX  89
SPRINGFIELD    SUNNY     89  69  51 NW14      30.06F HX  93
TAYLORVILLE    MOSUNNY   86  66  51 NW7G16    30.06F HX  88
$$

...REGIONAL REPORTS...


CITY           SKY/WX    TMP DP  RH WIND       PRES   REMARKS
CHICAGO O`HARE MOSUNNY   86  52  30 W17G31    29.96F HX  84
KANKAKEE       MOSUNNY   86  60  41 W13G22    30.00F HX  86
MOLINE         SUNNY     88  56  33 NW15      30.04F HX  86
MOUNT STERLING NOT AVBL
MOUNT VERNON   NOT AVBL
PITTSFIELD     SUNNY     88  65  46 NW3       30.10F HX  89
QUINCY         SUNNY     87  65  47 NW8       30.09F HX  89
ROCKFORD       MOSUNNY   85  52  32 NW20G25   30.01F HX  83
$$


CITY           SKY/WX    TMP DP  RH WIND       PRES   REMARKS
BURLINGTON     SUNNY     86  67  52 W7        30.07F HX  89
CEDAR RAPIDS   SUNNY     83  65  54 NW15      30.06F HX  85
DES MOINES     MOSUNNY   89  61  38 N5        30.08F HX  89
KIRKSVILLE     SUNNY     87  62  43 NW8       30.11F HX  87
OTTUMWA        SUNNY     86  69  56 N3        30.07F HX  90
ST LOUIS       MOSUNNY   93  62  35 NW8       30.09F HX  93
$$


CITY           SKY/WX    TMP DP  RH WIND       PRES   REMARKS
TERRE HAUTE    SUNNY     89  63  41 W10       30.03F HX  90
EVANSVILLE     SUNNY     89  59  36 W6        30.06F HX  88
INDIANAPOLIS   MOSUNNY   87  57  35 W13G21    30.01F HX  86
LAFAYETTE      MOSUNNY   86  66  51 W18G26    29.98F HX  88
MADISON        MOSUNNY   80  49  33 NW13G29   29.98F
MILWAUKEE      MOSUNNY   84  48  28 NW17G28   29.93F HX  82
$$





USA.gov is the U.S. government's official web portal to all federal, state and local government web resources and services.